Regional Weather Roundup
Issued by NWS

Home | Current Version | Previous Version | Graphics & Text | Print | Product List | Glossary Off
Versions: 1 2 3 4 5 6 7 8 9 10 11 12 13 14 15 16 17 18 19 20 21 22 23 24 25 26 27 28 29 30 31 32 33 34 35 36 37 38 39 40 41 42 43 44 45 46 47 48 49 50

000
ASUS43 KDMX 242207
RWRIA

WEATHER ROUNDUP FOR IOWA
NATIONAL WEATHER SERVICE DES MOINES IA
500 PM CDT SUN MAY 24 2015

NOTE: "FAIR" INDICATES FEW OR NO CLOUDS BELOW 12,000 FEET WITH NO
SIGNIFICANT WEATHER AND/OR OBSTRUCTIONS TO VISIBILITY.

* - THESE STATIONS ARE NOT NWS STATIONS...THUS NOT UNDER NWS
QUALITY CONTROL.  THEY ALSO DO NOT REPORT WEATHER SUCH
AS PRECIPITATION OR FOG.

IAZ001>003-012>014-020>022-031>034-043>046-242300-
   NORTHWEST IOWA

CITY           SKY/WX    TMP DP  RH WIND       PRES   REMARKS
CARROLL *      CLOUDY    66  64  94 S10       29.79F
CHEROKEE *     RAIN      64  63  94 SW3       29.79S
DENISON *      CLOUDY    64  64 100 SW3       29.78S FOG
LE MARS *      CLOUDY    64  61  88 W3        29.80S
ORANGE CITY *  LGT RAIN  63  59  88 CALM      29.80R
SHELDON *      PTSUNNY   63  61  94 E8        29.79S
SIOUX CITY     CLOUDY    65  60  84 SW3       29.80S
SPENCER        CLOUDY    64  62  93 SE7       29.80F
STORM LAKE *   CLOUDY    64  63  94 SW8       29.80F
$$

IAZ055>058-069>071-079>083-090>094-242300-
   SOUTHWEST IOWA

CITY           SKY/WX    TMP DP  RH WIND       PRES   REMARKS
ATLANTIC *     CLOUDY    68  64  88 S8        29.80S
AUDUBON *      MOSUNNY   66  63  88 S9        29.80F
CLARINDA *     PTSUNNY   70  64  83 S9G16     29.83R
COUNCIL BLFS * CLOUDY    68  68 100 SW6       29.81S
CRESTON *      CLOUDY    70  66  88 S15       29.81S
HARLAN  *      CLOUDY    66  66 100 SW8       29.83S
LAMONI         CLOUDY    70  64  81 S9        29.82F
RED OAK *      PTSUNNY   70  64  83 SW10      29.81R
SHENANDOAH *   PTSUNNY   72  64  78 SW12      29.81S
$$

IAZ047>049-059>061-072>074-084-242300-
   CENTRAL IOWA

CITY           SKY/WX    TMP DP  RH WIND       PRES   REMARKS
AMES           CLOUDY    69  64  84 S9        29.80F
ANKENY *       CLOUDY    72  66  83 S8        29.80F
CHARITON *     PTSUNNY   72  66  83 S9        29.82F
DES MOINES     CLOUDY    72  64  76 S8        29.80F
GRINNELL*      DRIZZLE   70  64  83 S10       29.84S
KNOXVILLE *    DRIZZLE   72  64  78 S7        29.81S
MARSHALLTOWN   LGT RAIN  69  65  86 S9        29.81F
PELLA *        DRIZZLE   72  68  88 S8        29.84S
PERRY *        CLOUDY    68  64  88 S8        29.80F
$$

IAZ004>006-015-016-023>025-035-036-242300-
   NORTH CENTRAL IOWA

CITY           SKY/WX    TMP DP  RH WIND       PRES   REMARKS
ALGONA *       FOG       63  61  94 SE8       29.81F VSB 3/4
CLARION *      PTSUNNY   66  66 100 S14       29.81F
ESTHERVILLE    CLOUDY    60  60 100 SE8       29.81F FOG
FORT DODGE *   CLOUDY    63  61  94 S5        29.82S
MASON CITY     LGT RAIN  62  60  93 SE13      29.84F FOG
FOREST CITY *  DRIZZLE   59  59 100 SE8       29.83F
IOWA FALLS *   CLOUDY    64  63  94 SE9       29.84F FOG
$$

IAZ007>011-017>019-026>030-037>042-050>054-066-242300-
   NORTHEAST IOWA

CITY           SKY/WX    TMP DP  RH WIND       PRES   REMARKS
CEDAR RAPIDS   PTSUNNY   70  68  93 SE7       29.84F
CHARLES CITY * CLOUDY    61  61 100 SE10      29.86F FOG
CLINTON *      CLOUDY    73  68  83 W8        29.90F
DECORAH *      CLOUDY    59  59 100 SE13G20   29.89S
DUBUQUE        CLOUDY    63  60  90 E9        29.91F FOG
MONTICELLO *   PTSUNNY   66  66 100 E8G14     29.88F
OELWEIN *      CLOUDY    64  63  94 SE12G17   29.87F
WATERLOO       CLOUDY    65  62  90 SE8       29.84F
$$

IAZ064-065-067-068-078-242300-
   EAST CENTRAL IOWA

CITY           SKY/WX    TMP DP  RH WIND       PRES   REMARKS
DAVENPORT      LGT RAIN  73  67  81 CALM      29.87F
IOWA CITY      LGT RAIN  73  68  84 S6        29.86F
MT. PLEASANT * CLOUDY    72  66  83 W6        29.85S
MUSCATINE *    HVY RAIN  72  68  88 S8G23     29.86S VSB 3/4
QUAD CITIES    LGT RAIN  75  67  76 S9G22     29.86F
$$

IAZ062-063-075>077-085>089-095>099-242300-
   SOUTHEAST IOWA

CITY           SKY/WX    TMP DP  RH WIND       PRES   REMARKS
BURLINGTON     PTSUNNY   78  69  73 S9        29.83F HX  80
FAIRFIELD *    PTSUNNY   70  66  88 S7        29.84F
FORT MADISON * PTSUNNY   79  72  78 SE8       29.84F HX  82
KEOKUK *       MOSUNNY   79  68  69 S13       29.82F HX  81
OSKALOOSA *    LGT RAIN  70  64  83 S10       29.84F
CENTERVILLE *  LGT RAIN  68  68 100 S6        29.84F
OTTUMWA        LGT RAIN  70  67  90 S7        29.83F
WASHINGTON *   CLOUDY    72  68  88 SW5       29.86F
$$

ABBREVIATIONS USED IN REMARKS
   TC - TEMPERATURES IN CELSIUS
  WCI - WIND CHILL INDEX
   HX - HEAT INDEX
  VSB - VISIBILITY
$$



USA.gov is the U.S. government's official web portal to all federal, state and local government web resources and services.